Greenville, MS

7:59 AM CDT on June 23, 2017 (GMT -0500)
Mid Delta Regional

Weather History for KGLH - December, 2013

Change the Weather History Date:

Wednesday, December 4, 2013

  Actual Average Record
Temperature  
Mean Temperature 71 °F 47 °F  
Max Temperature 79 °F 57 °F 81 °F (1933)
Min Temperature 62 °F 38 °F 21 °F (2006)
Degree Days  
Heating Degree Days 0 18  
Month to date heating degree days 27 70  
Since 1 July heating degree days 561 532  
Cooling Degree Days 6 0  
Month to date cooling degree days 6 0  
Year to date cooling degree days 2253 2186  
Growing Degree Days 20 (Base 50)    
Moisture  
Dew Point 62 °F    
Average Humidity 76    
Maximum Humidity 93    
Minimum Humidity 58    
Precipitation  
Precipitation 0.00 in 0.20 in 5.35 in (1982)
Month to date precipitation 0.01 0.82  
Year to date precipitation 48.32 47.84  
Sea Level Pressure  
Sea Level Pressure 29.77 in    
Wind  
Wind Speed 13 mph (South)    
Max Wind Speed 28 mph    
Max Gust Speed 37 mph    
Visibility 7 miles    
Events      
T = Trace of Precipitation, MM = Missing Value Source: NWS Daily Summary

Daily Weather History Graph

Daily Weather History Graph

Search for Another Location

Airport or City:

Trip Planner

Search our weather history database for the weather conditions in past years. The results will help you decide how hot, cold, wet, or windy it might be!

Date:

Astronomy

Dec. 04, 2013 Rise Set
Actual Time 6:52 AM CST 4:55 PM CST
Civil Twilight 6:25 AM CST 5:23 PM CST
Nautical Twilight 5:54 AM CST 5:53 PM CST
Astronomical Twilight 5:24 AM CST 6:24 PM CST
Moon 8:22 AM CST (12/4) 7:04 PM CST (12/4)
Length of Visible Light 10h 57m
Length of Day
10h 03m
Waxing Crescent, 4% of the Moon is Illuminated
Dec 4
Waxing Crescent
Dec 9
First Quarter
Dec 17
Full
Dec 25
Last Quarter
Jan 1
New

Hourly Weather History & Observations

Time (CST) Temp. Dew Point Humidity Pressure Visibility Wind Dir Wind Speed Gust Speed Precip Events Conditions
12:36 AM 64.4 °F 60.8 °F 88% 29.70 in 8.0 mi South 12.7 mph - N/A   Partly Cloudy
12:53 AM 64.0 °F 61.0 °F 90% 29.72 in 8.0 mi South 13.8 mph - N/A   Clear
1:51 AM 64.4 °F 60.8 °F 88% 29.72 in 9.0 mi SSW 9.2 mph - N/A   Mostly Cloudy
1:53 AM 64.0 °F 61.0 °F 90% 29.74 in 9.0 mi SSW 10.4 mph - N/A   Mostly Cloudy
2:10 AM 62.6 °F 60.8 °F 94% 29.72 in 8.0 mi South 10.4 mph - N/A   Scattered Clouds
2:27 AM 62.6 °F 60.8 °F 94% 29.72 in 8.0 mi South 9.2 mph - N/A   Mostly Cloudy
2:50 AM 64.4 °F 60.8 °F 88% 29.72 in 8.0 mi South 9.2 mph - N/A   Scattered Clouds
2:53 AM 64.0 °F 61.0 °F 90% 29.74 in 8.0 mi South 9.2 mph - N/A   Mostly Cloudy
3:08 AM 62.6 °F 60.8 °F 94% 29.72 in 8.0 mi South 9.2 mph - N/A   Scattered Clouds
3:35 AM 64.4 °F 60.8 °F 88% 29.72 in 8.0 mi South 9.2 mph - N/A   Mostly Cloudy
3:53 AM 62.1 °F 60.1 °F 93% 29.74 in 7.0 mi South 9.2 mph - N/A   Mostly Cloudy
4:53 AM 63.0 °F 61.0 °F 93% 29.74 in 7.0 mi South 9.2 mph - N/A   Overcast
5:53 AM 64.9 °F 62.1 °F 90% 29.76 in 7.0 mi South 11.5 mph - N/A   Mostly Cloudy
6:53 AM 66.0 °F 63.0 °F 90% 29.78 in 7.0 mi South 11.5 mph - N/A   Overcast
7:53 AM 68.0 °F 64.0 °F 87% 29.79 in 5.0 mi SSW 15.0 mph - N/A   Mostly Cloudy
8:31 AM 68.0 °F 64.4 °F 88% 29.79 in 5.0 mi SSW 12.7 mph - N/A   Overcast
8:53 AM 69.1 °F 64.9 °F 87% 29.81 in 4.0 mi South 13.8 mph - N/A   Overcast
9:14 AM 69.8 °F 64.4 °F 83% 29.79 in 5.0 mi SSW 17.3 mph 25.3 mph N/A   Haze
9:53 AM 71.1 °F 64.9 °F 81% 29.82 in 5.0 mi SSW 20.7 mph 28.8 mph N/A   Haze
10:53 AM 73.9 °F 64.9 °F 73% 29.81 in 5.0 mi SSW 18.4 mph 26.5 mph N/A   Haze
11:53 AM 75.9 °F 64.0 °F 67% 29.78 in 6.0 mi South 24.2 mph 31.1 mph N/A   Haze
12:13 PM 77.0 °F 64.4 °F 65% 29.75 in 6.0 mi SSW 24.2 mph 36.8 mph N/A   Haze
12:53 PM 77.0 °F 63.0 °F 62% 29.75 in 6.0 mi SSW 27.6 mph 34.5 mph N/A   Haze
1:53 PM 78.1 °F 63.0 °F 60% 29.74 in 7.0 mi South 23.0 mph 32.2 mph N/A   Partly Cloudy
2:53 PM 78.1 °F 63.0 °F 60% 29.75 in 7.0 mi South 18.4 mph - N/A   Scattered Clouds
3:53 PM 77.0 °F 63.0 °F 62% 29.76 in 7.0 mi SSW 16.1 mph 27.6 mph N/A   Clear
4:53 PM 72.0 °F 62.1 °F 71% 29.78 in 6.0 mi South 8.1 mph - N/A   Haze
5:53 PM 66.9 °F 61.0 °F 81% 29.80 in 6.0 mi South 6.9 mph - N/A   Haze
6:53 PM 64.9 °F 61.0 °F 87% 29.81 in 6.0 mi South 6.9 mph - N/A   Scattered Clouds
7:53 PM 66.0 °F 62.1 °F 87% 29.83 in 7.0 mi South 6.9 mph - N/A   Mostly Cloudy
8:53 PM 69.1 °F 63.0 °F 81% 29.84 in 7.0 mi SSE 10.4 mph - N/A   Partly Cloudy
9:53 PM 68.0 °F 63.0 °F 84% 29.85 in 8.0 mi South 10.4 mph - N/A   Clear
10:53 PM 68.0 °F 63.0 °F 84% 29.87 in 8.0 mi South 8.1 mph - N/A   Partly Cloudy
11:53 PM 66.9 °F 63.0 °F 87% 29.87 in 8.0 mi South 8.1 mph - N/A   Overcast